AO-07 1 07530U 74089B 24178.96244637 -.00000045 00000-0 72251-5 0 9998 2 07530 101.9775 173.7018 0012630 66.2307 353.0631 12.53676384270500 UO-11 1 14781U 84021B 24179.45420627 .00002120 00000-0 24382-3 0 9996 2 14781 97.7051 148.4171 0009361 50.5616 309.6427 14.86777036171010 AO-16 1 20439U 90005D 24179.03797990 .00000248 00000-0 10693-3 0 9995 2 20439 98.8990 184.4384 0010695 177.1091 252.0368 14.33397617798994 LO-19 1 20442U 90005G 24179.48374154 .00000290 00000-0 12157-3 0 9995 2 20442 98.8821 170.0213 0012176 150.7665 209.4202 14.33558896799311 AO-27 1 22825U 93061C 24179.39993285 .00000212 00000-0 98814-4 0 9998 2 22825 98.7878 232.2817 0009272 54.2373 305.9670 14.30511453604341 IO-26 1 22826U 93061D 24179.37576260 .00000240 00000-0 10881-3 0 9995 2 22826 98.7824 232.1212 0009563 40.3405 319.8485 14.30894422604603 FO-29 1 24278U 96046B 24178.73173835 .00000025 00000-0 60097-4 0 9990 2 24278 98.5805 112.1370 0350344 163.3824 197.9148 13.53191317375728 NOAA-15 1 25338U 98030A 24179.82721855 .00000352 00000-0 16383-3 0 9996 2 25338 98.5676 206.7315 0009148 296.6593 63.3651 14.26612765358954 GO-32 1 25397U 98043D 24179.49548037 .00000170 00000-0 94137-4 0 9999 2 25397 98.9219 146.3721 0002225 109.9027 250.2391 14.24060910349105 ISS 1 25544U 98067A 24179.85864792 .00017136 00000-0 30890-3 0 9993 2 25544 51.6405 262.4312 0011212 14.9159 92.8445 15.49821550460203 NO-44 1 26931U 01043C 24179.75843934 .00000351 00000-0 16400-3 0 9998 2 26931 67.0521 304.2420 0007278 278.0925 81.9351 14.31261605187626 SO-50 1 27607U 02058C 24179.20745176 .00001628 00000-0 23723-3 0 9999 2 27607 64.5523 190.7469 0026178 107.4933 252.9035 14.79053828158014 CO-55 1 27844U 03031E 24179.00283807 .00000503 00000-0 24104-3 0 9995 2 27844 98.6761 185.8947 0010926 113.3035 246.9294 14.23288715 89217 CO-57 1 27848U 03031J 24179.01117297 .00000429 00000-0 21087-3 0 9993 2 27848 98.6794 186.1424 0010617 127.8008 232.4133 14.22726587 88986 RS-22 1 27939U 03042A 24179.84545250 .00001888 00000-0 32304-3 0 9995 2 27939 98.2921 336.2140 0012517 32.1430 104.0195 14.70017171109842 NOAA-18 1 28654U 05018A 24179.82793864 .00000305 00000-0 18652-3 0 9992 2 28654 98.8744 256.7046 0014714 37.3710 322.8483 14.13239661984765 CO-58 1 28895U 05043F 24178.37554328 .00002027 00000-0 36377-3 0 9993 2 28895 98.2029 314.2159 0014872 332.3348 27.7063 14.67778161995801 CO-65 1 32785U 08021C 24179.17778524 .00006609 00000-0 58044-3 0 9995 2 32785 97.7545 144.4213 0009103 296.5550 63.4738 14.96886081877046 AAUSAT2 1 32788U 08021F 24179.46044696 .00023311 00000-0 11476-2 0 9992 2 32788 97.5942 159.7323 0007947 125.2868 234.9109 15.17959942879986 CO-66 1 32791U 08021J 24179.51296385 .00010497 00000-0 76157-3 0 9995 2 32791 97.6917 150.6258 0002647 269.8449 90.2473 15.04094418878151 RS-30 1 32953U 08025A 24179.61472665 .00000032 00000-0 15956-3 0 9991 2 32953 82.5029 83.0014 0020626 81.4531 278.8885 12.43142888730427 PRISM 1 33493U 09002B 24179.39098174 .00024925 00000-0 11595-2 0 9992 2 33493 98.2035 227.8967 0012358 204.8309 155.2330 15.19880888840600 NOAA-19 1 33591U 09005A 24179.85162634 .00000288 00000-0 17860-3 0 9996 2 33591 99.0465 235.7633 0012781 261.2315 98.7409 14.13034806793134 SRMSAT 1 37841U 11058D 24179.01874812 .00000469 00000-0 11185-3 0 9990 2 37841 19.9721 97.3142 0011832 202.0402 227.3806 14.11131069656175 HRBE 1 37855U 11061F 24179.45212583 .02262703 51658-5 17149-2 0 9996 2 37855 101.6760 14.8323 0024502 276.5460 83.3020 16.14377236695179 RS-40 1 38735U 12041C 24179.48367552 .00000037 00000-0 19970-3 0 9996 2 38735 82.4753 163.4651 0016862 192.0518 168.0161 12.42610850540542 ZACUBE-1 1 39417U 13066B 24179.86968767 .00005681 00000-0 58928-3 0 9995 2 39417 97.7342 135.5992 0052081 124.0921 236.5255 14.89352260573178 Delfi-N3xt 1 39428U 13066N 24179.48969317 .00009797 00000-0 12401-2 0 9994 2 39428 97.8376 97.5502 0102441 55.9084 305.1797 14.78310885567790 GOMX-1 1 39430U 13066Q 24179.84677193 .00002382 00000-0 40128-3 0 9996 2 39430 97.7312 53.5861 0138843 218.5064 140.6171 14.64241801564603 LO-74 1 39440U 13066AA 24179.83423695 .00004118 00000-0 48727-3 0 9994 2 39440 97.8129 123.2750 0068082 238.6570 120.7969 14.83494034571112 AO-73 1 39444U 13066AE 24178.93645302 .00007393 00000-0 71292-3 0 9990 2 39444 97.7198 137.8348 0049778 108.0482 252.6169 14.92241333572152 SPROUT 1 39770U 14029E 24179.39699165 .00200872 00000-0 33093-2 0 9992 2 39770 98.0076 333.1224 0006184 212.8705 147.2161 15.51575208549234 DTUSAT-2 1 40030U 14033W 24179.83422273 .00007974 00000-0 66925-3 0 9990 2 40030 98.0103 132.5573 0011839 111.3139 248.9348 14.98578858544809 EO-80 1 40032U 14033Y 24179.40207576 .00007646 00000-0 64171-3 0 9999 2 40032 98.0055 132.1218 0011201 119.9304 240.3032 14.98597479544727 XW-2C 1 40906U 15049H 24179.82256737 .00032226 00000-0 72486-3 0 9996 2 40906 97.4773 196.9128 0005870 250.4158 109.6456 15.43241891486118 XW-2D 1 40907U 15049J 24179.85317318 .00052290 00000-0 89349-3 0 9992 2 40907 97.4715 199.5747 0005423 222.8974 137.1855 15.51119628486350 LILACSAT-2 1 40908U 15049K 24179.81370965 .00010255 00000-0 39387-3 0 9998 2 40908 97.5235 188.5996 0010556 319.3683 40.6766 15.26592437485112 XW-2B 1 40911U 15049N 24179.88491753 .00049766 00000-0 87531-3 0 9991 2 40911 97.4684 199.6880 0005095 226.4015 133.6814 15.50314590486226 IO-86 1 40931U 15052B 24179.40563476 .00001417 00000-0 10427-3 0 9998 2 40931 5.9999 279.7198 0013381 228.8248 131.0725 14.77896523473086 ChubuSat-2 1 41338U 16012B 24178.61190396 .00006064 00000-0 37380-3 0 9996 2 41338 31.0023 330.1485 0011327 332.0512 27.9517 15.08437097459029 ChubuSat-3 1 41339U 16012C 24179.81645352 .00005823 00000-0 36447-3 0 9992 2 41339 31.0084 320.9431 0011365 348.6341 11.4039 15.07860625459180 Horyu-4 1 41340U 16012D 24179.53742284 .00013193 00000-0 64969-3 0 9994 2 41340 31.0024 268.1375 0009916 80.3244 279.8516 15.16705997459727 Lapan A3 1 41603U 16040E 24179.80389218 .00004481 00000-0 17998-3 0 9991 2 41603 97.1415 193.0428 0013746 68.3216 291.9485 15.25353434444844 Pratham 1 41783U 16059A 24179.03503317 .00001120 00000-0 21633-3 0 9991 2 41783 97.8356 197.9090 0032162 352.1379 7.9316 14.64932977413985 CAS-2T 1 41847U 16066G 24179.16632104 .00003137 00000-0 46243-3 0 9995 2 41847 98.4598 250.3921 0354725 147.1945 215.1820 14.41319296400933 CAS-4B 1 42759U 17034B 24179.82927802 .00019135 00000-0 68102-3 0 9992 2 42759 43.0167 166.3965 0010517 54.5697 305.6136 15.28582196389030 CAS-4A 1 42761U 17034D 24179.82983957 .00019181 00000-0 68062-3 0 9994 2 42761 43.0198 164.7355 0009401 67.4363 292.7484 15.28689183389042 Aalto 1 1 42775U 17036L 24179.03765331 .00118381 00000-0 95930-3 0 9994 2 42775 97.1006 208.8113 0008008 152.6002 207.5685 15.70367991390659 URSA MAIOR 1 42776U 17036M 24179.56321139 .01601946 22031-2 12296-2 0 9995 2 42776 97.0914 214.6157 0010847 217.5670 142.4861 16.15472691391070 Max Valier Sat 1 42778U 17036P 24179.85674444 .02755898 22469-5 15555-2 0 9995 2 42778 97.0620 218.9773 0004833 206.7273 153.3768 16.19227649391302 D-SAT 1 42794U 17036AF 24179.20227889 .00007806 00000-0 54148-3 0 9990 2 42794 97.4826 160.7327 0111626 114.4868 246.8046 15.00854296382259 TechnoSat 1 42829U 17042E 24179.47837472 .00003493 00000-0 31000-3 0 9990 2 42829 97.3850 359.9712 0013439 44.1529 316.0763 14.96709241378715 AO-91 1 43017U 17073E 24179.17127430 .00006609 00000-0 41180-3 0 9999 2 43017 97.5761 54.3105 0208344 260.2852 97.4782 14.93600911357158 TianYi 2 1 43155U 18008A 24179.87934994 .00156346 00000-0 16165-2 0 9997 2 43155 97.2326 234.1309 0002960 74.2176 285.9409 15.64233913356575 Zhou Enlai 1 43156U 18008B 24179.70977863 .00481508 00000-0 20208-2 0 9996 2 43156 97.2315 236.3712 0004011 225.4862 134.6081 15.84335771356615 TianYi 6 1 43158U 18008D 24179.66740001 .00066146 00000-0 12211-2 0 9997 2 43158 97.2532 228.3047 0006346 74.9284 285.2669 15.48853062356093 S-Net D 1 43186U 18014G 24179.76005238 .00005905 00000-0 42333-3 0 9997 2 43186 97.5885 81.4154 0009805 339.3576 20.7253 15.04699363350099 S-Net B 1 43187U 18014H 24179.29685418 .00005563 00000-0 39911-3 0 9998 2 43187 97.5894 80.9109 0010479 335.8962 24.1773 15.04688368350024 S-Net A 1 43188U 18014J 24179.29569024 .00005712 00000-0 40961-3 0 9996 2 43188 97.5898 81.0234 0010432 336.6325 23.4426 15.04696166350023 S-Net C 1 43189U 18014K 24179.29896181 .00005433 00000-0 38974-3 0 9995 2 43189 97.5917 80.9764 0011849 328.0650 31.9857 15.04691960348577 Ten-Koh 1 43677U 18084G 24179.37432586 .00004392 00000-0 39530-3 0 9990 2 43677 98.0643 333.2043 0013366 349.4503 10.6435 14.96111740308244 PO-101 1 43678U 18084H 24179.84725890 .00002616 00000-0 24257-3 0 9993 2 43678 98.0728 338.1473 0008848 4.8483 355.2821 14.95350167308512 QO-100 1 43700U 18090A 24179.32232889 .00000148 00000-0 00000+0 0 9994 2 43700 0.0199 12.2586 0002141 130.4564 275.0548 1.00272271 20702 MinXSS-2 1 43758U 18099A 24179.70919922 .00011292 00000-0 71016-3 0 9999 2 43758 97.5531 241.9075 0014992 281.0787 78.8756 15.09293381304374 AO-95 1 43770U 18099N 24179.20556681 .00008465 00000-0 58381-3 0 9995 2 43770 97.5443 236.8384 0012461 334.0967 25.9635 15.05993545304075 RANGE-B 1 43772U 18099Q 24179.39657864 .00014432 00000-0 88597-3 0 9995 2 43772 97.5226 240.5345 0004816 220.6457 139.4414 15.10199007304268 RANGE-A 1 43773U 18099R 24179.09509602 .00006064 00000-0 46033-3 0 9990 2 43773 97.5009 232.0103 0012533 298.7155 61.2811 15.02491650303927 MOVE-II 1 43780U 18099Y 24179.12401830 .00024136 00000-0 12488-2 0 9992 2 43780 97.5203 242.0211 0004883 301.8985 58.1772 15.16222092304433 SNUSat 2 1 43782U 18099AA 24179.15935182 .00007957 00000-0 56204-3 0 9996 2 43782 97.5130 235.8904 0012978 266.4235 93.5507 15.05111640304074 SnugLite 1 43784U 18099AC 24179.70079740 .00009552 00000-0 65340-3 0 9992 2 43784 97.4942 235.7522 0003046 268.2528 91.8350 15.06317763304221 ITASat 1 1 43786U 18099AE 24179.70235595 .00007503 00000-0 53957-3 0 9991 2 43786 97.5099 236.6690 0015984 319.0081 40.9943 15.04425016304150 EAGLET 1 1 43790U 18099AJ 24179.16020076 .00005363 00000-0 40283-3 0 9992 2 43790 97.5296 236.6293 0011776 297.8598 62.1434 15.02955576303779 ESEO 1 43792U 18099AL 24179.14686198 .00002656 00000-0 21963-3 0 9991 2 43792 97.5134 233.4197 0011364 289.4051 70.5944 14.99706707303699 CSIM 1 43793U 18099AM 24179.44352485 .00019605 00000-0 10209-2 0 9996 2 43793 97.5284 244.0688 0010889 272.1106 87.8879 15.15998748304337 JO-97 1 43803U 18099AX 24179.72069419 .00011038 00000-0 72830-3 0 9992 2 43803 97.5185 238.1569 0008596 262.7491 97.2760 15.07593100304287 Suomi 100 1 43804U 18099AY 24179.11323266 .00009088 00000-0 61262-3 0 9998 2 43804 97.5260 237.3601 0014503 265.7996 94.1575 15.06799717304177 ISAT 1 43879U 18111D 24179.47801750 .00013116 00000-0 79221-3 0 9994 2 43879 97.6183 85.1319 0011743 332.6581 27.4029 15.10767625298955 UWE-4 1 43880U 18111E 24179.73577761 .00011677 00000-0 72404-3 0 9993 2 43880 97.6107 85.3811 0015446 339.5283 20.5325 15.09798843299027 Sparrow 1 43881U 18111F 24179.71051355 .00013439 00000-0 80053-3 0 9995 2 43881 97.6261 87.2841 0010328 16.7262 343.4306 15.11279765299079 AISat 1 1 44104U 19018AC 24179.67827633 .01786107 24317-5 60348-3 0 9993 2 44104 97.3414 292.6970 0015036 262.7568 203.1339 16.25347744294570 Prox-1 1 44339U 19036A 24179.38081407 .00011600 00000-0 19821-2 0 9997 2 44339 23.9985 159.8385 0009045 116.4597 243.6826 14.67058977266831 SONATE 1 44400U 19038Q 24179.50709125 .00022478 00000-0 66834-3 0 9998 2 44400 97.7122 174.0647 0017899 74.0270 286.2942 15.34603361275666 Taurus 1 1 44530U 19059C 24179.89344251 .00007817 00000-0 18027-2 0 9992 2 44530 98.5769 300.3448 0010995 28.5867 331.5930 14.55529841253327 Duchifat 3 1 44854U 19089C 24179.79068887 .00018557 00000-0 92667-3 0 9997 2 44854 36.9579 344.6216 0005080 184.0839 175.9867 15.16779731249812 TO-108 1 44881U 19093C 24179.83074550 .00001448 00000-0 18097-3 0 9997 2 44881 97.8283 256.4080 0012974 289.7829 70.1986 14.83788847244624 FloripaSat 1 1 44885U 19093G 24179.82412205 .00006403 00000-0 66234-3 0 9995 2 44885 97.8401 262.3176 0011190 279.1759 80.8193 14.90390274244951 RS-44 1 44909U 19096E 24179.19744217 .00000044 00000-0 13038-3 0 9995 2 44909 82.5214 98.1266 0218242 28.0661 333.2006 12.79731027210306 BY70-2 1 45857U 20042B 24179.84006209 .00179656 00000-0 52197-2 0 9999 2 45857 97.9057 274.1095 0011302 204.1909 155.8804 15.34680043216181 UPMSat 2 1 46276U 20061E 24179.72988340 .00018608 00000-0 56096-3 0 9990 2 46276 97.2963 245.8569 0002741 105.4493 254.7053 15.34355247211797 AmicalSat 1 46287U 20061R 24179.45709228 .00036632 00000-0 97769-3 0 9997 2 46287 97.3480 246.7262 0003202 162.5902 197.5454 15.38028106211149 SALSAT 1 46495U 20068K 24179.45724708 .00007318 00000-0 41413-3 0 9999 2 46495 97.8164 139.0078 0011828 279.5041 80.4853 15.13307327205862 UVSQ-SAT 1 47438U 21006AB 24178.85922190 .00060706 00000-0 11088-2 0 9992 2 47438 97.3241 239.4825 0008008 169.5219 190.6201 15.49168238190237 YUSAT 1 1 47439U 21006AC 24179.43309263 .00268530 00000-0 17063-2 0 9992 2 47439 97.3172 245.2714 0007761 188.3573 171.7564 15.75680890190661 SOMP 2b 1 47445U 21006AJ 24179.13897363 .00054821 00000-0 11209-2 0 9991 2 47445 97.3213 238.0109 0007799 174.6666 185.4668 15.45929376190191 IDEASSat 1 47458U 21006AX 24179.71668494 .00043660 00000-0 98483-3 0 9999 2 47458 97.3320 239.0933 0007719 174.4959 185.6375 15.43078308190213 CubeSX-Sirius-HSE 1 47951U 21022V 24179.79784735 .00023825 00000-0 92131-3 0 9995 2 47951 97.4588 78.1368 0016585 100.3633 259.9476 15.26090292180190 CubeSX-HSE 1 47952U 21022W 24179.75045428 .00022977 00000-0 88572-3 0 9992 2 47952 97.4588 78.1829 0016503 99.8333 260.4769 15.26203738180195 KSU-Cubesat 1 47954U 21022Y 24179.65262891 .00026992 00000-0 94820-3 0 9992 2 47954 97.4597 79.4534 0015559 96.0931 264.2082 15.29245950179987 GRBAlpha 1 47959U 21022AD 24179.77967140 .00022825 00000-0 87724-3 0 9995 2 47959 97.4590 78.3640 0016425 99.8910 260.4183 15.26305003179020 Orbicraft-Zorkiy 1 47960U 21022AE 24179.82518634 .00027269 00000-0 98587-3 0 9999 2 47960 97.4633 79.7268 0015614 97.4326 262.8688 15.28301278179786 STECCO 1 47962U 21022AG 24179.80240999 .00181472 00000-0 19420-2 0 9990 2 47962 97.4566 89.9539 0009548 88.6829 271.5523 15.63225557179785 MO-110 1 47964U 21022AJ 24179.48887230 .00301863 00000-0 21773-2 0 9993 2 47964 97.4570 91.6451 0009829 98.1167 262.1211 15.72602785179858 TUBIN 1 48900U 21059X 24179.84557147 .00017441 00000-0 59213-3 0 9992 2 48900 97.6475 324.7936 0007289 56.8488 303.3450 15.30543708166557 LEDSAT 1 49069U 21073D 24179.75041943 .00018446 00000-0 73416-3 0 9994 2 49069 97.4367 250.8130 0018131 242.8659 117.0730 15.25157769158062 CUTE 1 49263U 21088D 24179.46787191 .00021870 00000-0 10103-2 0 9994 2 49263 97.4957 245.3943 0014486 51.8594 308.3944 15.20113990151203 TeikyoSat 4 1 49396U 21102B 24179.08902658 .00002656 00000-0 19408-3 0 9992 2 49396 97.4573 223.7247 0012266 239.0805 120.9216 15.04422042144249 Z-Sat 1 49399U 21102E 24179.88580439 .00006043 00000-0 38930-3 0 9997 2 49399 97.4298 226.0697 0019575 217.3670 142.6199 15.08539123144604 KOSEN 1 1 49402U 21102H 24179.70640537 .00006844 00000-0 40467-3 0 9996 2 49402 97.4223 227.3736 0018511 200.1715 159.8786 15.11634815144738 HO-113 1 50466U 21131B 24179.82886723 .00000929 00000-0 31087-3 0 9998 2 50466 98.5286 264.8484 0005441 96.2784 263.9024 14.39683090131539 Tevel-3 1 50988U 22002E 24179.83240563 .00252058 00000-0 18322-2 0 9990 2 50988 97.3734 256.2925 0005104 238.6003 121.4762 15.72601161136720 Tevel-8 1 50989U 22002F 24179.81251017 .00263112 00000-0 19327-2 0 9994 2 50989 97.3754 256.3636 0004889 239.5287 120.5493 15.72321765136715 Tevel-5 1 50998U 22002Q 24179.68826981 .00420296 00000-0 18797-2 0 9995 2 50998 97.3691 257.7819 0008043 240.2982 119.7487 15.83101427136817 Tevel-6 1 50999U 22002R 24179.82921276 .00435177 00000-0 19850-2 0 9990 2 50999 97.3695 257.8749 0007862 242.7072 117.3397 15.82642554136836 Tevel-1 1 51013U 22002AF 24179.86663614 .00251173 00000-0 18531-2 0 9998 2 51013 97.3722 256.1717 0005288 237.2379 122.8376 15.72249689136728 IRIS-A 1 51044U 22002BN 24179.76762821 .00022495 00000-0 72853-3 0 9992 2 51044 97.3836 246.2409 0005064 10.5868 349.5479 15.32020866136040 Tevel-7 1 51062U 22002CG 24179.85940800 .00254900 00000-0 18481-2 0 9991 2 51062 97.3738 256.3938 0005366 236.9686 123.1062 15.72652599136724 Tevel-4 1 51063U 22002CH 24179.84834691 .00244135 00000-0 18404-2 0 9995 2 51063 97.3746 256.2489 0005279 238.0470 122.0280 15.71756120136714 Tevel-2 1 51069U 22002CP 24179.70201727 .00236919 00000-0 17272-2 0 9997 2 51069 97.3728 256.1228 0005229 238.0400 122.0356 15.72574212136702 OreSat0 1 52017U 22026K 24178.99394394 .00080534 00000-0 11860-2 0 9997 2 52017 97.4935 193.7302 0013994 168.0443 192.1146 15.55040361127230 Planetum 1 1 52738U 22057G 24179.13004600 .00047798 00000-0 11074-2 0 9998 2 52738 97.5673 305.6373 0005596 125.4950 234.6820 15.42271112116102 Foresail-1 1 52766U 22057AL 24178.92160962 .00022761 00000-0 72759-3 0 9990 2 52766 97.5839 304.6605 0010309 100.0894 260.1511 15.32402010115942 SNUGLITE 2 1 52899U 22065F 24178.98674657 .00001598 00000-0 33589-3 0 9996 2 52899 98.1211 319.9423 0008908 119.3940 240.8152 14.60873515105693 IO-117 1 53106U 22080B 24179.39627855 -.00000003 00000-0 00000+0 0 9998 2 53106 70.1314 188.9743 0007566 105.0209 255.1288 6.42557731 45925 SelfieSat 1 53951U 22057BC 24179.30219512 .00111445 00000-0 14842-2 0 9992 2 53951 97.5682 309.8872 0004060 140.0500 220.1054 15.57756524116367 FO-118 1 54684U 22167C 24179.85738494 .00030446 00000-0 10216-2 0 9995 2 54684 97.6067 324.9420 0010726 111.6695 248.5689 15.30774924 85932 SSS-2B 1 56184U 23054G 24179.66980138 .00038530 00000-0 90913-3 0 9996 2 56184 97.3671 77.7535 0009295 125.2506 234.9612 15.41741182 67755 CIRBE 1 56188U 23054L 24179.21382651 .00082065 00000-0 12521-2 0 9997 2 56188 97.3598 79.3845 0008031 118.9928 241.2132 15.54138018 67843 INSPIRE-Sat 7 1 56211U 23054AK 24179.25423751 .00097403 00000-0 13661-2 0 9993 2 56211 97.3608 80.7231 0010947 102.8852 257.3627 15.56352352 67921 RoseyCubesat 1 1 56212U 23054AL 24179.67216995 .00121152 00000-0 13890-2 0 9993 2 56212 97.3623 82.0310 0011239 103.0418 257.2095 15.61619068 68046 SO-120 1 56992U 23084BU 24179.53164167 .00030539 00000-0 10900-2 0 9996 2 56992 97.5326 299.0071 0010903 349.6958 10.4056 15.28760756 57768 MRC-100 1 56993U 23084BV 24179.29187750 .00037818 00000-0 12608-2 0 9997 2 56993 97.5328 299.1975 0010119 348.2106 11.8896 15.30942645 57763 UmKA 1 (RS40S) 1 57172U 23091G 24179.88485020 .00007347 00000-0 48348-3 0 9996 2 57172 97.6109 231.8224 0018320 86.9392 273.3932 15.07707962 55103 CubeBel-2 (EU11S) 1 57175U 23091K 24179.83008604 .00010462 00000-0 67383-3 0 9995 2 57175 97.6104 231.7294 0016595 98.5600 261.7509 15.08419027 55092 VERONIKA 1 58261U 23174F 24179.78445933 .00020447 00000-0 90783-3 0 9992 2 58261 97.4596 254.4730 0012426 199.0480 161.0292 15.21515698 35322 KAFASAT 1 58317U 23174BP 24179.84246659 .00027108 00000-0 10879-2 0 9993 2 58317 97.4541 255.1470 0011967 177.3800 182.7503 15.24885821 35389 ENSO 1 58470U 23185J 24179.84149298 .00017964 00000-0 75135-3 0 9992 2 58470 97.4256 246.4521 0011625 234.8495 125.1653 15.23583158 31764 EIRSAT-1 1 58472U 23185L 24179.87621158 .00019380 00000-0 79602-3 0 9994 2 58472 97.4249 246.5378 0011315 235.0946 124.9228 15.24181516 31778 SO-121 1 58567U 23174CY 24179.19273396 .00058656 00000-0 19589-2 0 9995 2 58567 97.4523 254.9581 0013574 188.2936 171.8083 15.30734575 35314 SONATE-2 1 59112U 24043Q 24179.31609424 .00011684 00000-0 56301-3 0 9991 2 59112 97.4800 303.0481 0013797 256.9107 103.0588 15.18805391 17345 KASHIWA 1 59508U 98067WH 24179.50058936 .00182848 00000-0 14069-2 0 9999 2 59508 51.6287 258.7454 0012852 347.9655 12.1033 15.70807771 12118 /EX
